This is the latest recevied weather packets stored in our database for station/object KADF. If no packets are shown the sender has not sent any weather packets the latest 1 day(s).
| Time | Temp. | Humidity | Pressure | Rain* | Wind** | Luminosity | Snow |
|---|---|---|---|---|---|---|---|
| 1778062405 | 15° C | 93% | 1010.2 hPa | - | - | - | - |
| 1778059405 | - | - | 1013.2 hPa | - | - | - | - |
| 1778058208 | 20° C | 82% | 1008.8 hPa | - | - | - | - |
| 1778057010 | 22.78° C | 73% | 1008.1 hPa | - | - | - | - |
| 1778055804 | - | - | 1011.9 hPa | - | - | - | - |
| 1778055203 | - | - | 1011.9 hPa | - | - | - | - |
| 1778054002 | 23.89° C | 94% | 1011.2 hPa | - | - | - | - |
| 1778053406 | 22.78° C | 100% | 1006.1 hPa | - | - | - | - |
| 1778052804 | 22.78° C | 100% | 1006.1 hPa | - | - | - | - |
| 1778052205 | 22.78° C | 100% | 1006.1 hPa | - | - | - | - |
| 1778051006 | 22.78° C | 100% | 1006.1 hPa | - | - | - | - |
| 1778050401 | 22.78° C | 100% | 1006.8 hPa | - | - | - | - |
| 1778049210 | 22.78° C | 100% | 1006.8 hPa | - | - | - | - |
| 1778048604 | 22.78° C | 100% | 1006.8 hPa | - | - | - | - |
| 1778048003 | 22.78° C | 94% | 1011.5 hPa | - | - | - | - |
| 1778047408 | 22.78° C | 94% | 1011.5 hPa | - | - | - | - |
| 1778046805 | 22.78° C | 94% | 1006.4 hPa | - | - | - | - |
| 1778045602 | 22.78° C | 94% | 1006.4 hPa | - | - | - | - |
| 1778045004 | 22.78° C | 94% | 1006.4 hPa | - | - | - | - |
| 1778043806 | 22.78° C | 94% | 1006.4 hPa | - | - | - | - |
| 1778043203 | 22.78° C | 94% | 1006.8 hPa | - | - | - | - |
| 1778042005 | 22.78° C | 94% | 1006.8 hPa | - | - | - | - |
| 1778041405 | 22.78° C | 94% | 1006.8 hPa | - | - | - | - |
| 1778040807 | 22.78° C | 94% | 1006.8 hPa | - | - | - | - |
| 1778040325 | 22.78° C | 94% | 1006.8 hPa | - | - | - | - |
* Rain since midnight (hover to see other rain measurements)
** Current wind speed in m/s (hover to see current wind gust speed)